This demonstration page uses our WeatherBlox Daily Observations layout. Learn more.

Left ArrowRight Arrow

Hourly Observations for December 30, 2021

Temp ( °F °C ) Dew Point ( °F °C ) Humidity (%) Winds ( mph kmh ) Pressure ( in mb ) Visibility ( mi km ) Precip ( " mm )
12:53 am 00:53 Cloudy -16 -26.7 -21 -29.4 78 78 ENE 8 13 29.61 1003 10 16 0.00 0.00
1:53 am 01:53 Cloudy -15 -26.1 -20 -28.9 77 77 E 7 11 29.61 1003 10 16 0.00 0.00
2:53 am 02:53 Cloudy -13 -25 -19 -28.3 74 74 E 6 9 29.62 1003 10 16 0.00 0.00
3:53 am 03:53 Cloudy -11 -23.9 -17 -27.2 74 74 Calm 29.62 1003 10 16 0.00 0.00
4:53 am 04:53 Cloudy with Light Snow -9 -22.8 -14 -25.6 78 78 Calm 29.63 1003 7 11 0.00 0.00
5:53 am 05:53 Cloudy with Light Snow -6 -21.1 -11 -23.9 78 78 NNW 3 6 29.62 1003 5 8 0.00 0.00
6:13 am 06:13 Cloudy with Light Snow -5 -20.6 -10 -23.3 79 79 WNW 5 7 29.73 1007 3 4 0.00 0.00
6:22 am 06:22 Cloudy with Light Snow -5 -20.6 -10 -23.3 79 79 NW 5 7 29.73 1007 2 3 0.01 0.25
6:53 am 06:53 Cloudy with Light Snow -2 -18.9 -7 -21.7 79 79 WNW 7 11 29.62 1003 2 3 0.01 0.25
7:09 am 07:09 Cloudy with Light Snow -2 -18.9 -6 -21.1 83 83 WNW 7 11 29.72 1006 2 3 0.00 0.00
7:50 am 07:50 Cloudy with Light Snow 0 -18 -6 -21 78 78 WNW 12 19 29.72 1006 2 3 0.01 0.25
7:53 am 07:53 Cloudy with Light Snow -1 -18.3 -5 -20.6 82 82 WNW 13 20 29.63 1003 2 3 0.01 0.25
8:29 am 08:29 Cloudy with Light Snow 0 -17.8 -4 -20 83 83 W 9 15 29.74 1007 2 3 0.00 0.00
8:42 am 08:42 Cloudy with Light Snow 0 -18 -4 -20 84 84 SSW 6 9 29.75 1007 2 3 0.00 0.00
8:53 am 08:53 Cloudy with Light Snow 1 -17.2 -4 -20 79 79 WNW 5 7 29.67 1005 5 8 0.01 0.25
9:11 am 09:11 Cloudy with Light Snow 1 -17.2 -4 -20 79 79 WNW 5 7 29.77 1008 2 3 0.00 0.00
9:18 am 09:18 Cloudy with Light Snow 1 -17.2 -4 -20 79 79 NW 5 7 29.78 1009 2 3 0.00 0.00
9:29 am 09:29 Cloudy with Light Snow 1 -17.2 -4 -20 79 79 WNW 3 6 29.78 1009 3 5 0.00 0.00
9:34 am 09:34 Cloudy with Light Snow 1 -17.2 -3 -19.4 83 83 VRB 5 7 29.79 1009 2 3 0.00 0.00
9:45 am 09:45 Cloudy with Light Snow 2 -16.7 -3 -19.4 80 80 NE 5 7 29.80 1009 1 2 0.00 0.00
9:53 am 09:53 Cloudy with Light Snow 1 -17.2 -4 -20 79 79 ENE 7 11 29.73 1007 1 2 0.00 0.00
10:11 am 10:11 Cloudy with Light Snow 2 -16.7 -4 -20 76 76 NNE 5 7 29.82 1010 2 3 0.00 0.00
10:27 am 10:27 Cloudy with Light Snow 2 -16.7 -4 -20 76 76 N 3 6 29.84 1010 2 2 0.00 0.00
10:35 am 10:35 Cloudy with Light Snow 3 -16.1 -3 -19.4 76 76 NW 8 13 29.84 1010 1 2 0.00 0.00
10:42 am 10:42 Cloudy with Haze 3 -16.1 -3 -19.4 76 76 NNW 9 15 29.85 1011 2 3 0.00 0.00
10:53 am 10:53 Cloudy with Haze 3 -16.1 -3 -19.4 76 76 NNW 7 11 29.78 1009 2 2 0.01 0.25
11:02 am 11:02 Cloudy with Haze 3 -16.1 -3 -19.4 76 76 NNW 9 15 29.86 1011 1 2 0.00 0.00
11:29 am 11:29 Mostly Cloudy with Haze 1 -17.2 -4 -20 79 79 NNW 10 17 29.88 1012 1 1 0.00 0.00
11:41 am 11:41 Mostly Cloudy with Haze 1 -17.2 -5 -20.6 75 75 NW 12 19 29.88 1012 1 1 0.00 0.00
11:53 am 11:53 Mostly Cloudy with Haze 1 -17.2 -5 -20.6 75 75 NW 7 11 29.80 1009 1 1 0.00 0.00
12:12 pm 12:12 Mostly Cloudy with Haze 1 -17.2 -5 -20.6 75 75 WNW 6 9 29.89 1012 1 2 0.00 0.00
12:49 pm 12:49 Cloudy with Haze 1 -17 -6 -21 71 71 NNW 5 7 29.89 1012 2 3 0.00 0.00
12:53 pm 12:53 Cloudy with Haze 1 -17.2 -5 -20.6 75 75 NNW 6 9 29.81 1009 3 4 0.00 0.00
1:00 pm 13:00 Mostly Cloudy with Haze 0 -18 -8 -22 71 71 NNW 8 13 29.90 1013 6 10 0.00 0.00
1:11 pm 13:11 Partly Cloudy 0 -17.8 -8 -22.2 69 69 N 5 7 29.91 1013 10 16 0.00 0.00
1:53 pm 13:53 Cloudy -1 -18.3 -10 -23.3 65 65 N 7 11 29.83 1010 10 16 0.00 0.00
2:53 pm 14:53 Mostly Sunny -1 -18.3 -10 -23.3 65 65 N 8 13 29.84 1011 10 16 0.00 0.00
3:53 pm 15:53 Cloudy -3 -19.4 -11 -23.9 68 68 NNW 3 6 29.89 1012 10 16 0.00 0.00
4:53 pm 16:53 Cloudy -4 -20 -10 -23.3 75 75 SW 3 6 29.91 1013 7 11 0.00 0.00
5:53 pm 17:53 Cloudy -4 -20 -9 -22.8 79 79 SW 6 9 29.93 1014 10 16 0.00 0.00
6:53 pm 18:53 Cloudy -3 -19.4 -8 -22.2 79 79 SW 9 15 29.93 1014 10 16 0.00 0.00
7:53 pm 19:53 Cloudy -2 -18.9 -8 -22.2 75 75 W 8 13 29.94 1014 8 13 0.00 0.00
8:53 pm 20:53 Cloudy -2 -18.9 -8 -22.2 75 75 W 8 13 29.95 1014 10 16 0.00 0.00
9:53 pm 21:53 Cloudy -2 -18.9 -9 -22.8 72 72 WNW 6 9 29.96 1015 8 13 0.00 0.00
10:53 pm 22:53 Cloudy -4 -20 -11 -23.9 71 71 WNW 12 19 29.99 1016 10 16 0.00 0.00
11:53 pm 23:53 Cloudy -6 -21.1 -13 -25 71 71 NW 6 9 30.01 1016 10 16 0.00 0.00

Powered by AerisWeather